Temp
13 13 13 14 14 13 13 13 13 14 14 13 13 13 14 14 14 14 14 14 13 13 13 13 13 13 13 13 13 13 13 13 13 13 13 13 13 13 13 13 13 13
13 13 13 13 14 14 13 13 14 14 14 13 13 13 14 14 14 14 14 14 14 13 14 13 13 13 13 13 13 13 13 13 13 13 13 13 13 13 13 13 13 13
13 13 14 14 14 14 14 14 14 14 14 13 13 13 13 14 14 14 14 14 14 14 14 13 13 13 13 13 13 13 13 13 13 13 13 13 13 13 13 13 13 13
14 14 14 14 14 15 14 14 14 14 13 13 13 13 13 14 14 14 14 14 14 14 14 14 13 13 13 13 13 13 13 13 13 13 13 13 13 13 13 13 13 13
14 14 14 14 14 14 14 14 14 13 13 13 13 13 13 13 14 14 14 14 14 14 14 13 13 13 13 13 13 13 12 13 13 13 13 13 13 13 13 13 13 13
14 14 14 14 14 14 14 14 14 13 13 13 13 12 12 12 12 13 14 14 14 14 14 13 13 13 13 14 13 13 12 12 13 12 12 13 13 13 13 13 13 13
14 14 14 14 14 14 14 14 13 13 13 13 13 12 12 12 12 13 14 14 14 14 13 13 13 13 14 14 13 13 13 12 12 12 12 12 12 12 12 13 13 13
14 14 14 14 14 14 14 14 13 13 13 13 13 12 12 13 13 13 13 13 13 13 13 13 13 13 14 14 13 13 13 12 12 12 12 12 12 12 12 12 12 12
13 14 14 14 14 14 14 14 13 13 13 13 13 13 13 13 13 13 13 13 13 12 12 13 13 13 13 13 13 13 12 12 12 12 12 12 12 12 12 12 12 12
13 13 14 14 14 14 14 13 13 12 13 13 12 13 13 13 12 12 12 12 12 13 13 12 12 12 12 12 12 12 12 13 13 12 12 12 12 12 12 12 12 12
13 13 13 14 14 14 13 13 13 12 13 13 12 13 13 13 12 12 12 12 13 13 13 12 13 12 12 12 12 12 12 12 12 12 12 12 12 12 12 12 12 12
13 13 13 14 14 13 13 13 13 13 13 13 12 13 13 12 12 12 12 13 13 13 13 13 13 12 12 12 12 12 12 12 12 12 12 12 13 13 13 13 13 13
13 13 13 13 13 13 13 13 13 13 13 13 12 13 13 12 12 13 13 13 13 13 13 13 13 13 13 12 12 12 12 12 12 12 12 12 13 13 13 13 13 13
13 13 13 13 13 13 13 13 13 13 13 12 12 12 12 12 13 13 13 13 13 13 13 14 13 13 13 13 12 12 12 12 12 12 12 12 13 13 13 13 13 13
13 13 13 13 12 13 13 13 13 13 12 12 12 12 12 13 13 13 13 13 13 13 13 13 13 13 13 13 13 12 12 12 12 12 12 12 13 13 13 13 13 12
13 13 13 13 13 13 13 13 13 12 12 12 12 12 12 13 13 13 13 13 13 13 13 13 13 13 13 13 12 12 12 12 12 12 12 12 12 13 13 13 12 12
13 12 12 13 13 13 12 12 12 12 12 12 12 12 12 12 12 13 13 13 12 12 12 12 13 13 12 12 12 12 12 12 12 12 12 12 12 12 12 12 12 12
12 12 13 13 12 12 12 12 12 12 12 12 12 12 12 12 12 12 12 12 12 12 12 12 12 12 12 12 12 12 12 12 12 12 12 12 12 12 12 12 12 12
12 12 12 12 11 11 12 12 11 11 11 11 12 12 12 12 12 12 12 12 12 12 12 12 12 12 11 11 11 11 12 12 12 12 12 12 12 12 12 12 12 12
11 11 11 11 11 11 11 11 11 11 11 11 11 11 12 12 12 12 12 12 12 12 11 11 11 11 11 11 11 11 11 11 12 12 12 12 12 12 12 12 12 12
10 10 11 11 11 11 11 11 11 11 11 11 11 11 11 11 11 11 11 11 11 11 11 11 11 11 11 11 11 11 11 11 11 11 11 12 11 11 11 11 11 11
9 10 10 11 11 11 11 11 11 11 11 11 11 11 11 11 11 11 11 11 10 10 10 10 10 10 10 10 10 10 11 11 11 10 11 11 11 11 11 11 11 11
9 9 10 10 10 10 11 11 11 10 10 10 10 10 10 11 11 11 10 10 9 9 10 10 10 10 10 10 10 10 10 10 10 10 10 11 10 10 10 10 10 10
8 8 9 9 9 10 10 10 10 10 10 10 10 10 10 10 10 10 10 9 9 10 10 10 9 9 10 10 10 10 10 10 10 10 10 10 10 10 10 10 10 10
7 7 7 8 8 8 9 9 9 9 9 9 9 9 9 9 9 9 9 9 10 10 10 10 9 9 9 10 10 10 10 10 10 10 10 10 9 9 9 10 10 10
6 7 7 7 7 7 8 8 9 9 9 9 8 8 9 9 9 8 8 8 9 9 9 9 9 9 9 9 9 9 9 10 10 10 10 10 9 9 9 9 9 9
Height
1497 1502 1505 1508 1511 1515 1519 1521 1523 1526 1527 1529 1530 1531 1532 1533 1534 1535 1536 1537 1538 1539 1540 1541 1542 1543 1545 1546 1547 1548 1549 1550 1551 1553 1555 1556 1558 1559 1561 1562 1563 1564
1496 1501 1504 1506 1509 1513 1517 1519 1522 1525 1527 1529 1530 1531 1532 1532 1533 1534 1535 1536 1537 1539 1539 1540 1541 1542 1544 1545 1546 1548 1548 1549 1550 1551 1553 1555 1557 1558 1559 1561 1562 1563
1495 1498 1502 1506 1508 1512 1515 1519 1523 1525 1527 1529 1530 1531 1531 1532 1533 1534 1535 1536 1537 1538 1539 1540 1541 1542 1543 1544 1545 1547 1548 1548 1550 1551 1552 1554 1556 1557 1558 1560 1561 1562
1493 1496 1501 1505 1507 1511 1515 1518 1522 1525 1527 1529 1530 1530 1530 1531 1532 1533 1534 1536 1536 1537 1539 1540 1540 1541 1543 1544 1545 1546 1547 1548 1549 1550 1551 1553 1555 1556 1557 1558 1560 1561
1492 1495 1499 1503 1506 1510 1514 1517 1521 1523 1526 1527 1528 1529 1529 1530 1531 1532 1533 1535 1536 1537 1538 1539 1540 1541 1542 1543 1544 1545 1546 1548 1549 1550 1551 1552 1554 1555 1556 1558 1559 1560
1492 1494 1497 1501 1505 1509 1512 1516 1519 1521 1524 1525 1526 1527 1528 1529 1530 1531 1532 1534 1535 1537 1538 1539 1540 1540 1541 1542 1543 1545 1546 1547 1549 1550 1551 1552 1553 1554 1556 1557 1558 1559
1492 1493 1496 1499 1503 1507 1510 1514 1517 1519 1522 1523 1524 1526 1527 1528 1529 1530 1532 1533 1535 1536 1537 1539 1539 1540 1541 1542 1543 1544 1546 1547 1549 1550 1551 1552 1553 1555 1555 1556 1557 1558
1493 1494 1495 1498 1502 1505 1508 1511 1514 1517 1520 1522 1523 1524 1526 1527 1529 1531 1532 1533 1535 1536 1537 1538 1539 1539 1540 1541 1542 1544 1546 1547 1548 1549 1551 1552 1553 1554 1555 1556 1557 1558
1494 1495 1496 1498 1500 1504 1506 1510 1513 1516 1519 1520 1522 1523 1525 1527 1529 1530 1532 1534 1535 1536 1537 1538 1539 1539 1540 1541 1542 1543 1545 1546 1548 1549 1551 1552 1553 1554 1555 1556 1556 1557
1495 1496 1497 1498 1500 1503 1506 1509 1512 1515 1517 1519 1521 1523 1525 1527 1529 1530 1532 1534 1535 1536 1537 1538 1538 1539 1540 1540 1542 1543 1544 1545 1547 1548 1550 1552 1553 1554 1555 1556 1556 1556
1495 1496 1497 1498 1500 1503 1506 1509 1511 1514 1517 1519 1521 1523 1525 1527 1528 1530 1532 1533 1534 1536 1537 1538 1538 1539 1539 1540 1541 1542 1543 1545 1546 1548 1549 1551 1552 1553 1554 1555 1555 1556
1495 1496 1497 1498 1500 1503 1505 1508 1511 1513 1516 1519 1521 1523 1525 1527 1528 1529 1531 1533 1534 1536 1537 1538 1538 1539 1539 1540 1541 1542 1543 1544 1546 1547 1549 1550 1551 1552 1553 1554 1555 1555
1495 1496 1497 1499 1501 1503 1505 1508 1510 1513 1516 1519 1521 1523 1525 1526 1528 1530 1532 1533 1535 1536 1537 1538 1538 1538 1539 1539 1540 1541 1542 1544 1546 1548 1549 1550 1551 1552 1553 1554 1554 1554
1494 1496 1497 1499 1501 1503 1505 1507 1510 1513 1516 1519 1521 1523 1524 1526 1528 1530 1532 1534 1535 1536 1536 1537 1537 1538 1538 1539 1540 1541 1542 1544 1546 1548 1549 1550 1551 1552 1554 1554 1554 1554
1493 1495 1497 1499 1501 1503 1505 1507 1510 1513 1515 1518 1520 1522 1524 1526 1528 1531 1532 1533 1535 1535 1535 1535 1536 1537 1538 1539 1540 1541 1542 1544 1546 1548 1549 1550 1551 1552 1553 1554 1554 1554
1493 1495 1497 1499 1500 1502 1505 1507 1511 1513 1515 1518 1520 1522 1524 1525 1527 1530 1532 1534 1534 1533 1533 1534 1535 1536 1537 1538 1540 1541 1543 1544 1545 1547 1549 1549 1550 1551 1552 1553 1553 1553
1492 1496 1498 1499 1500 1502 1506 1508 1511 1514 1516 1518 1520 1522 1523 1524 1527 1530 1532 1533 1532 1531 1532 1533 1534 1535 1537 1538 1540 1541 1543 1544 1545 1547 1548 1549 1550 1550 1551 1552 1553 1553
1491 1494 1497 1499 1501 1503 1506 1510 1512 1514 1516 1518 1520 1522 1523 1525 1527 1529 1529 1530 1530 1530 1532 1533 1534 1535 1536 1538 1540 1541 1543 1544 1545 1547 1547 1548 1549 1549 1550 1551 1552 1553
1489 1491 1493 1497 1501 1503 1507 1509 1510 1512 1515 1517 1519 1520 1522 1524 1526 1526 1527 1528 1529 1530 1532 1533 1534 1535 1536 1537 1539 1541 1542 1544 1545 1546 1547 1547 1548 1549 1550 1550 1551 1552
1486 1489 1491 1495 1499 1501 1505 1507 1509 1512 1514 1515 1517 1518 1521 1523 1523 1525 1526 1528 1529 1531 1532 1533 1534 1535 1536 1537 1538 1540 1542 1543 1544 1545 1546 1547 1547 1548 1549 1549 1550 1551
1486 1489 1492 1496 1498 1500 1504 1507 1509 1511 1512 1514 1516 1518 1520 1522 1523 1525 1527 1528 1529 1530 1532 1533 1534 1535 1536 1536 1538 1539 1541 1542 1543 1544 1545 1546 1546 1547 1547 1548 1549 1550
1487 1490 1494 1497 1500 1502 1505 1507 1509 1510 1512 1513 1515 1517 1520 1522 1523 1525 1526 1528 1529 1530 1531 1533 1534 1535 1536 1537 1538 1539 1540 1541 1542 1543 1544 1545 1546 1546 1547 1547 1547 1548
1489 1491 1494 1498 1501 1502 1504 1507 1508 1509 1511 1513 1515 1517 1519 1521 1523 1525 1526 1528 1529 1530 1531 1533 1534 1535 1536 1537 1538 1539 1540 1541 1541 1543 1544 1544 1545 1545 1545 1546 1546 1547
1491 1492 1494 1498 1501 1502 1504 1506 1507 1508 1511 1513 1515 1518 1520 1521 1523 1525 1526 1527 1528 1530 1531 1533 1534 1536 1536 1537 1538 1539 1540 1540 1541 1541 1542 1544 1544 1544 1544 1544 1545 1545
1495 1496 1497 1499 1501 1502 1504 1505 1507 1509 1512 1514 1516 1518 1520 1521 1523 1524 1525 1526 1527 1529 1530 1532 1534 1535 1536 1537 1538 1538 1539 1539 1540 1540 1541 1542 1543 1542 1542 1543 1543 1544
1499 1500 1502 1503 1504 1505 1506 1507 1508 1510 1513 1515 1517 1518 1519 1521 1522 1523 1525 1526 1527 1528 1530 1531 1532 1533 1535 1536 1536 1537 1537 1538 1539 1539 1539 1541 1542 1541 1540 1541 1541 1542
Wind_Speed
28 27 25 24 22 19 16 17 17 16 15 13 12 14 14 14 13 12 12 12 11 11 11 10 11 10 11 12 11 10 9 9 11 14 14 14 14 13 15 15 14 15
29 27 25 25 24 21 19 19 18 17 15 14 13 14 15 15 14 13 13 12 11 11 10 10 10 8 8 10 9 10 11 10 10 12 12 13 13 13 15 16 16 18
31 28 26 27 27 24 22 19 18 18 15 13 13 13 15 16 15 15 15 13 12 12 10 9 9 8 8 8 8 9 10 10 10 11 11 11 12 13 14 15 16 18
32 30 29 29 28 26 24 21 19 18 16 15 15 14 16 17 17 17 17 15 14 12 10 8 7 8 8 7 7 7 8 8 9 10 11 11 11 12 14 14 15 16
33 31 32 30 27 26 25 23 20 18 18 18 17 15 15 15 16 17 18 17 16 13 10 8 7 8 8 8 7 7 7 7 8 9 9 10 11 11 13 13 13 15
33 35 35 30 27 27 27 24 21 19 21 20 16 15 13 12 13 14 17 17 15 12 11 9 8 7 7 8 7 7 7 6 6 8 9 10 10 10 11 11 11 13
35 37 36 31 28 28 27 24 21 20 21 18 15 15 13 13 12 10 13 14 13 12 11 10 10 9 8 8 7 8 7 6 7 8 10 9 9 10 10 11 11 11
36 37 34 32 30 29 27 24 22 20 19 18 16 16 14 12 10 9 11 12 11 10 8 8 8 8 7 7 7 7 6 7 8 8 9 9 9 10 10 11 11 11
34 34 34 32 31 30 28 24 21 20 20 19 16 15 13 11 10 10 11 11 9 8 6 5 5 4 4 5 6 6 6 8 9 7 9 10 9 9 9 10 10 11
31 32 33 32 31 30 27 24 22 21 20 18 15 14 13 13 12 10 11 10 9 8 6 5 5 5 5 5 5 6 7 7 8 7 9 10 8 8 8 9 9 11
31 33 33 32 31 29 27 26 24 22 20 17 15 14 14 14 13 12 12 11 9 8 6 5 6 6 7 6 6 7 7 6 6 7 9 10 8 7 7 7 8 10
33 34 34 33 31 29 28 27 25 22 20 18 16 15 15 15 14 13 12 10 9 8 6 4 4 4 4 4 5 5 6 7 7 7 6 8 7 5 6 6 4 6
34 35 33 31 29 29 28 25 23 23 20 18 16 16 16 15 13 12 11 9 9 8 6 4 4 4 4 4 3 4 5 6 6 6 5 7 8 6 7 7 3 3
35 34 32 31 29 28 28 24 23 23 20 19 19 18 16 14 11 11 11 10 10 8 7 8 10 9 8 7 7 6 6 6 8 8 6 8 11 8 7 7 3 4
36 34 32 32 30 28 27 25 23 23 23 22 21 20 18 15 13 12 12 12 12 9 8 10 12 12 10 10 10 8 7 7 9 10 7 8 12 9 7 8 7 6
36 35 33 32 30 27 26 26 25 25 24 22 20 19 18 16 14 13 12 12 12 12 12 10 12 13 12 11 11 10 10 9 9 10 9 9 10 8 8 11 8 5
35 33 33 31 30 29 28 26 25 24 23 22 20 19 17 17 16 14 12 12 13 15 15 12 13 13 12 12 12 12 12 10 8 9 9 9 10 8 8 11 9 7
33 33 32 30 28 28 27 26 25 24 22 20 20 19 18 17 17 15 15 17 17 16 15 14 14 14 14 14 14 14 14 11 8 8 8 9 9 8 8 9 9 9
35 34 33 31 29 28 29 29 28 26 24 23 22 21 21 20 19 18 19 19 18 15 12 11 12 13 15 15 16 17 16 13 11 8 7 8 8 7 7 7 8 9
34 35 36 36 35 34 34 33 30 28 28 28 26 24 24 23 22 22 20 18 16 13 9 8 7 9 12 13 15 18 18 16 12 7 5 7 6 7 8 7 7 10
27 32 36 37 36 35 34 32 30 29 29 29 29 27 25 24 23 21 18 14 12 11 8 6 5 5 7 8 11 14 17 18 14 7 7 8 6 7 9 8 8 10
21 25 29 30 30 31 30 28 28 28 28 28 28 27 25 24 23 20 15 11 9 9 8 6 5 6 6 6 7 8 10 14 14 9 8 8 7 6 8 7 8 10
20 22 23 23 25 27 28 28 28 27 27 27 26 26 24 23 21 18 12 8 7 6 6 5 6 7 7 7 8 8 9 11 11 8 7 8 8 8 8 8 9 11
18 20 23 23 24 25 26 27 25 23 23 22 21 21 21 20 18 14 9 6 5 5 6 7 8 9 10 10 10 10 11 11 10 7 8 9 8 9 10 10 10 11
17 18 20 21 22 22 22 22 19 16 15 14 15 17 17 15 12 11 10 9 10 12 12 12 12 11 11 12 13 13 14 13 11 9 10 9 6 5 9 10 9 10
16 14 14 14 15 14 14 14 14 13 12 11 13 13 12 11 10 11 11 10 11 13 13 13 14 13 13 14 15 15 15 15 14 12 11 12 10 6 5 7 8 9
Wind_Direction
188 187 185 183 184 190 191 188 193 198 194 195 203 204 205 204 202 204 205 202 194 189 191 188 186 190 188 191 197 193 196 206 201 202 203 199 199 201 206 206 204 208
184 182 183 181 181 182 180 181 190 197 196 199 206 206 208 208 201 203 211 209 203 200 197 192 191 189 183 192 200 191 193 203 204 205 205 202 201 200 204 205 204 210
182 184 187 181 175 173 173 178 192 198 195 198 206 206 208 211 205 204 209 209 209 209 201 195 195 188 182 188 192 189 194 202 204 205 204 205 205 201 204 207 207 214
183 186 185 176 169 172 175 180 191 194 189 195 205 207 209 213 210 206 207 206 209 207 199 197 197 191 187 187 188 186 188 192 200 207 208 209 209 204 204 206 209 216
185 182 176 171 169 174 178 183 186 187 190 196 202 206 209 208 201 201 202 202 205 201 195 196 197 196 194 192 191 184 183 188 196 212 218 215 216 214 208 208 210 212
183 176 171 170 172 174 179 182 183 189 195 195 197 202 204 196 189 194 195 197 200 196 194 198 199 206 206 201 194 179 183 194 195 206 211 207 212 215 215 220 217 211
178 175 172 172 174 175 177 178 182 193 195 191 195 197 196 193 191 194 194 194 196 192 195 201 205 211 209 203 197 181 183 196 200 202 200 202 207 204 209 220 220 215
181 179 175 172 174 176 178 180 185 191 189 189 195 196 197 197 194 199 195 190 191 189 192 203 209 215 214 208 203 191 186 197 205 200 190 199 209 203 204 207 207 211
186 182 175 172 175 177 179 182 183 184 187 191 195 197 195 184 184 194 184 175 180 179 177 192 201 216 233 226 208 199 197 198 203 201 189 198 209 203 201 206 207 203
185 182 175 174 177 179 179 178 180 185 189 187 187 189 178 169 182 186 169 171 181 171 168 181 182 194 222 228 207 202 210 203 197 196 192 195 204 203 199 206 213 200
183 179 175 176 178 177 175 176 181 185 184 178 178 179 168 170 184 176 166 177 173 157 169 180 179 197 213 214 204 203 204 193 188 196 199 198 201 204 199 202 217 210
182 178 175 176 175 172 173 178 183 182 178 174 171 170 171 178 184 173 168 173 159 156 175 166 169 215 224 203 196 200 190 184 192 198 198 195 187 177 182 194 237 231
183 180 177 173 170 172 174 178 183 179 173 169 165 170 178 180 178 168 162 168 170 170 173 164 173 200 205 185 168 174 175 173 178 175 182 185 164 151 189 208 263 253
183 182 177 172 170 174 176 178 180 176 169 167 167 172 175 171 167 163 165 177 181 174 183 197 197 195 191 180 169 174 177 169 164 167 190 187 157 151 194 200 199 212
182 181 177 174 172 175 178 180 179 174 171 172 174 173 168 161 162 172 180 180 173 178 202 205 201 205 204 193 183 179 175 179 177 169 178 182 162 160 190 178 168 194
180 179 177 175 174 176 180 182 182 177 173 173 174 170 163 160 166 178 184 174 173 196 213 205 199 207 210 204 197 187 177 185 192 178 174 184 178 175 189 184 181 203
184 184 182 179 176 175 179 182 182 176 171 171 169 163 161 165 169 174 176 174 185 207 216 214 210 210 212 211 205 195 188 189 192 185 185 193 194 195 200 196 197 218
187 186 186 182 177 177 179 179 179 174 170 170 165 162 165 166 166 171 178 183 194 207 215 219 220 219 221 221 212 200 194 186 174 180 194 198 197 202 211 215 218 228
183 184 182 179 177 180 180 178 177 174 168 165 163 165 167 165 166 177 183 187 194 203 212 222 228 227 225 225 218 206 198 187 168 164 189 202 200 199 208 227 232 223
174 175 174 173 173 175 177 177 177 174 168 166 167 167 167 168 174 183 187 191 198 204 214 222 224 223 222 223 219 211 205 199 183 167 185 200 198 197 206 222 210 187
164 164 165 167 168 170 173 174 176 175 170 169 170 168 168 173 179 184 186 190 197 200 204 205 201 202 207 213 215 212 209 207 204 196 193 196 195 195 202 216 206 182
161 161 163 166 168 171 175 176 177 178 174 172 174 173 174 178 180 183 186 187 190 192 190 190 197 200 193 186 194 197 196 201 202 192 180 192 214 216 204 212 218 206
154 157 160 166 171 173 177 179 179 177 173 172 174 174 175 180 182 185 189 183 178 183 190 201 211 214 204 188 187 183 176 186 195 190 185 198 210 208 200 207 217 215
146 151 154 162 169 172 176 178 175 170 167 169 175 179 181 183 185 190 198 198 206 234 249 240 227 221 214 200 194 188 181 182 184 187 204 213 215 213 209 212 220 220
131 139 142 148 155 161 167 169 165 164 165 169 175 180 184 188 197 209 217 226 237 242 241 230 218 218 218 210 201 193 188 188 185 182 190 192 189 210 217 219 230 233
110 118 123 128 135 142 152 158 158 164 175 181 181 184 196 211 220 225 226 230 231 226 220 216 212 215 220 217 209 202 198 198 197 194 191 183 168 156 180 207 221 231